Weather History for Huntsville, AL

Change the Weather History Date:

Sunday, June 23, 2013

  Actual Average Record
Temperature  
Mean Temperature 79 °F 79 °F  
Max Temperature 90 °F 90 °F 104 °F (1930)
Min Temperature 68 °F 69 °F 53 °F (1972)
Degree Days  
Heating Degree Days 0 0  
Month to date heating degree days 0 0  
Since 1 June heating degree days 0 0  
Since 1 July heating degree days 3042 3001  
Cooling Degree Days 14 14  
Month to date cooling degree days 309 278  
Year to date cooling degree days 542 541  
Since 1 June cooling degree days 309 278  
Growing Degree Days 29 (Base 50)    
Moisture  
Dew Point 67 °F    
Average Humidity 68    
Maximum Humidity 90    
Minimum Humidity 46    
Precipitation  
Precipitation 0.00 in 0.14 in 1.80 in (1959)
Month to date precipitation 2.12 3.26  
Year to date precipitation 31.24 27.63  
Snow  
Snow 0.00 in - - ()
Month to date snowfall 0.0  
Since 1 June snowfall 0.0  
Since 1 July snowfall 0.7  
Snow Depth 0.00 in    
Sea Level Pressure  
Sea Level Pressure 30.10 in    
Wind  
Wind Speed 5 mph (ESE)    
Max Wind Speed 14 mph    
Max Gust Speed 17 mph    
Visibility 10 miles    
Events      
T = Trace of Precipitation, MM = Missing Value Source: NWS Daily Summary

Daily Weather History Graph

Daily Weather History Graph

Search for Another Location

Airport:

Trip Planner

Search our weather history database for the weather conditions in past years. The results will help you decide how hot, cold, wet, or windy it might be!

Date:

Astronomy

Jun. 23, 2013 Rise Set
Actual Time 5:35 AM CDT 8:03 PM CDT
Civil Twilight 5:05 AM CDT 8:33 PM CDT
Nautical Twilight 4:29 AM CDT 9:09 PM CDT
Astronomical Twilight 3:48 AM CDT 9:49 PM CDT
Moon 8:19 PM CDT (6/23) 5:49 AM CDT (6/23)
Length of Visible Light 15h 27m
Length of Day
14h 28m
Full, 100% of the Moon is Illuminated
Jun 23
Full
Jun 29
Last Quarter
Jul 8
New
Jul 15
First Quarter
Jul 22
Full

Hourly Weather History & Observations

Time (CDT) Temp. Heat Index Dew Point Humidity Pressure Visibility Wind Dir Wind Speed Gust Speed Precip Events Conditions
12:53 AM 71.1 °F - 66.9 °F 87% 30.09 in 10.0 mi ESE 5.8 mph - N/A   Clear
1:53 AM 70.0 °F - 66.0 °F 87% 30.07 in 10.0 mi Calm Calm - N/A   Clear
2:53 AM 70.0 °F - 64.9 °F 84% 30.06 in 10.0 mi ESE 3.5 mph - N/A   Clear
3:53 AM 70.0 °F - 64.0 °F 81% 30.07 in 10.0 mi Calm Calm - N/A   Clear
4:53 AM 68.0 °F - 64.0 °F 87% 30.09 in 10.0 mi ESE 4.6 mph - N/A   Clear
5:53 AM 69.1 °F - 64.0 °F 84% 30.12 in 10.0 mi East 3.5 mph - N/A   Partly Cloudy
6:53 AM 71.1 °F - 64.9 °F 81% 30.13 in 10.0 mi East 5.8 mph - N/A   Partly Cloudy
7:53 AM 73.9 °F - 66.0 °F 76% 30.16 in 10.0 mi ESE 4.6 mph - N/A   Clear
8:53 AM 80.1 °F 82.7 °F 68.0 °F 67% 30.16 in 10.0 mi SE 5.8 mph - N/A   Clear
9:53 AM 82.9 °F 85.4 °F 66.9 °F 58% 30.16 in 10.0 mi SE 5.8 mph - N/A   Clear
10:53 AM 86.0 °F 89.4 °F 68.0 °F 55% 30.15 in 10.0 mi Variable 5.8 mph - N/A   Scattered Clouds
11:53 AM 84.9 °F 86.6 °F 64.9 °F 51% 30.13 in 10.0 mi Variable 6.9 mph - N/A   Mostly Cloudy
12:53 PM 89.1 °F 92.1 °F 66.9 °F 48% 30.12 in 10.0 mi ESE 10.4 mph - N/A   Scattered Clouds
1:53 PM 87.1 °F 88.9 °F 64.9 °F 48% 30.09 in 10.0 mi ESE 5.8 mph - N/A   Mostly Cloudy
2:53 PM 89.1 °F 92.1 °F 66.9 °F 48% 30.09 in 10.0 mi ESE 9.2 mph - N/A   Mostly Cloudy
3:53 PM 90.0 °F 92.8 °F 66.9 °F 46% 30.08 in 10.0 mi ESE 10.4 mph - N/A   Mostly Cloudy
4:53 PM 86.0 °F 88.2 °F 66.0 °F 51% 30.06 in 10.0 mi ESE 8.1 mph - N/A   Mostly Cloudy
5:53 PM 88.0 °F 90.7 °F 66.9 °F 49% 30.06 in 10.0 mi SE 8.1 mph - N/A   Scattered Clouds
6:53 PM 86.0 °F 88.2 °F 66.0 °F 51% 30.06 in 10.0 mi SSE 8.1 mph - N/A   Scattered Clouds
7:53 PM 82.0 °F 84.9 °F 68.0 °F 62% 30.07 in 10.0 mi SE 3.5 mph - N/A   Scattered Clouds
8:53 PM 79.0 °F - 69.1 °F 72% 30.08 in 10.0 mi SE 3.5 mph - N/A   Partly Cloudy
9:53 PM 77.0 °F - 69.1 °F 76% 30.11 in 10.0 mi SE 3.5 mph - N/A   Partly Cloudy
10:53 PM 75.9 °F - 69.1 °F 79% 30.13 in 10.0 mi Calm Calm - N/A   Clear
11:53 PM 73.9 °F - 70.0 °F 87% 30.12 in 10.0 mi SE 3.5 mph - N/A   Clear